EW6510 Weather Reports


time (UTC)temp
C
wind
direction
speed
KPH
gust
KPH
rain 1hr
cm
rain 24hr
cm
rain mn
cm
humidity
%
barometer
mb
20200229100022 -17 0.0 0.0 0.00 0.00 0.00 1015.7
20200229094515 -17 0.0 0.0 0.00 0.00 0.00 1016.0
20200229093011 -17 0.0 0.0 0.00 0.00 0.00 1015.8
20200229091532 -17 0.0 0.0 0.00 0.00 0.00 1016.0
20200229090007 -17 0.0 0.0 0.00 0.00 0.00 1016.2
20200229084502 -17 0.0 0.0 0.00 0.00 0.00 1016.3
20200229083130 19 0.0 0.0 0.00 0.00 0.00 88 1016.5
20200229081825 19 319 0.0 0.0 0.00 0.00 0.00 88 1016.5
20200229080207 20 319 0.0 0.0 0.00 0.00 0.00 87 1016.4
20200229074742 20 319 0.0 0.0 0.00 0.00 0.00 87 1016.4
20200229073249 20 319 0.0 0.0 0.00 0.00 0.00 88 1016.5
20200229071701 20 319 0.0 0.0 0.00 0.00 0.00 89 1016.5
20200229070224 20 319 0.0 0.0 0.00 0.00 0.00 89 1016.5
20200229064658 20 319 0.0 0.0 0.00 0.00 0.00 88 1016.6
20200229063202 21 319 0.0 0.0 0.00 0.00 0.00 87 1016.4
20200229061616 21 319 0.0 0.0 0.00 0.00 0.00 86 1016.6
20200229060115 21 319 0.0 0.0 0.00 0.00 0.00 85 1016.7
20200229054715 21 316 0.0 0.0 0.00 0.00 0.00 86 1016.7
20200229053139 21 323 0.0 0.0 0.00 0.00 0.00 90 1016.8
20200229051649 21 323 0.0 0.0 0.00 0.00 0.00 90 1016.9
20200229050136 21 330 0.0 0.0 0.00 0.00 0.00 90 1016.9
20200229044637 21 314 0.0 0.0 0.00 0.00 0.00 88 1016.9
20200229043159 21 318 0.0 0.0 0.00 0.00 0.00 87 1016.9
20200229041600 21 311 0.0 0.0 0.00 0.00 0.00 88 1016.9
20200229040126 21 315 0.0 0.0 0.00 0.00 0.00 90 1017.0
20200229034600 21 311 0.0 0.0 0.00 0.00 0.00 89 1016.9
20200229033120 21 328 0.0 0.0 0.00 0.00 0.00 88 1016.8
20200229031700 21 317 0.0 0.0 0.00 0.00 0.00 90 1016.8
20200229030147 21 307 0.0 0.0 0.00 0.00 0.00 91 1016.6
20200229024615 21 330 0.0 0.0 0.00 0.00 0.00 90 1016.2
20200229023327 21 311 0.0 0.0 0.00 0.00 0.00 91 1016.0
20200229021633 22 314 0.0 0.0 0.00 0.00 0.00 91 1015.7
20200229020108 22 328 0.0 0.0 0.00 0.00 0.00 91 1015.5
20200229014558 22 343 0.0 0.0 0.00 0.00 0.00 90 1015.2
20200229013053 22 353 0.0 0.0 0.00 0.00 0.00 89 1015.1
20200229011612 22 315 0.0 0.0 0.00 0.00 0.00 88 1014.9
20200229010100 22 321 0.0 0.0 0.00 0.00 0.00 88 1014.8
20200229004638 22 304 0.0 0.0 0.00 0.00 0.00 88 1014.6
20200229003137 22 315 0.0 1.6 0.00 0.00 0.00 86 1014.7
20200229001620 23 317 0.0 0.0 0.00 0.00 0.00 87 1014.6
20200229000127 23 341 0.0 0.0 0.00 0.00 0.00 84 1014.5
20200228234601 23 342 0.0 0.0 0.00 0.00 0.00 83 1014.6
20200228233146 23 326 0.0 0.0 0.00 0.00 0.00 81 1014.6
20200228231607 23 329 0.0 0.0 0.00 0.00 0.00 82 1014.7
20200228230159 23 340 0.0 0.0 0.00 0.00 0.00 82 1014.7
20200228224718 24 323 0.0 0.0 0.00 0.00 0.00 83 1014.7
20200228223144 24 326 0.0 0.0 0.00 0.00 0.00 82 1014.7
20200228221636 24 333 0.0 0.0 0.00 0.00 0.00 81 1014.7
20200228220045 24 308 0.0 0.0 0.00 0.00 0.00 79 1014.7
20200228214636 24 251 0.0 0.0 0.00 0.00 0.00 79 1015.0
20200228213110 25 346 0.0 0.0 0.00 0.00 0.00 77 1015.2
20200228211611 25 338 0.0 0.0 0.00 0.00 0.00 79 1015.5
20200228210059 25 20 0.0 0.0 0.00 0.00 0.00 81 1015.6
20200228204656 25 284 0.0 0.0 0.00 0.00 0.00 82 1015.7
20200228203123 25 146 0.0 0.0 0.00 0.00 0.00 83 1015.9
20200228201610 25 300 0.0 0.0 0.00 0.00 0.00 81 1016.0
20200228200114 25 319 0.0 0.0 0.00 0.00 0.00 78 1016.0
20200228194600 25 328 0.0 0.0 0.00 0.00 0.00 77 1015.9
20200228193118 25 8 0.0 0.0 0.00 0.00 0.00 78 1016.2
20200228191536 25 187 0.0 0.0 0.00 0.00 0.00 76 1016.6
20200228190023 24 134 0.0 0.0 0.00 0.00 0.00 79 1016.9
20200228184505 24 309 0.0 0.0 0.00 0.00 0.00 78 1017.1
20200228183010 24 319 0.0 1.6 0.00 0.00 0.00 77 1017.3
20200228181502 25 356 0.0 0.0 0.00 0.00 0.00 75 1017.5
20200228180002 24 32 0.0 1.6 0.00 0.00 0.00 78 1017.8
20200228174756 23 316 0.0 0.0 0.00 0.00 0.00 79 1017.9
20200228173205 25 297 0.0 0.0 0.00 0.00 0.00 77 1018.1
20200228171649 24 356 0.0 1.6 0.00 0.00 0.00 76 1018.1
20200228170137 24 325 0.0 0.0 0.00 0.00 0.00 73 1018.1
20200228164610 24 330 0.0 0.0 0.00 0.00 0.00 75 1017.9
20200228163152 23 50 0.0 0.0 0.00 0.00 0.00 77 1018.1
20200228161723 23 195 0.0 0.0 0.00 0.00 0.00 76 1017.9
20200228160225 23 200 0.0 0.0 0.00 0.00 0.00 80 1017.8
20200228154726 23 203 0.0 0.0 0.00 0.00 0.00 79 1017.7
20200228153158 23 187 0.0 1.6 0.00 0.00 0.00 79 1017.5
20200228151559 23 201 0.0 1.6 0.00 0.00 0.00 78 1017.5
20200228150304 23 197 0.0 1.6 0.00 0.00 0.00 82 1017.3
20200228144615 21 184 0.0 0.0 0.00 0.13 0.00 89 1017.1
20200228143059 19 186 0.0 0.0 0.00 0.13 0.00 92 1016.9
20200228141630 18 181 0.0 1.6 0.00 0.13 0.00 95 1016.7
20200228140101 -17 0.0 0.0 0.00 0.13 0.00 1016.5
20200228134618 -17 0.0 0.0 0.00 0.15 0.00 1016.5
20200228133205 -17 0.0 0.0 0.00 0.15 0.00 1016.5
20200228131624 -17 0.0 0.0 0.00 0.15 0.00 1016.2
20200228130036 -17 0.0 0.0 0.00 0.15 0.00 1016.2
20200228124530 -17 0.0 0.0 0.00 0.15 0.00 1016.0
20200228123043 -17 0.0 0.0 0.00 0.15 0.00 1015.8
20200228121604 -17 0.0 0.0 0.00 0.15 0.00 1015.8
20200228120013 -17 0.0 0.0 0.00 0.15 0.00 1015.7
20200228114513 -17 0.0 0.0 0.00 0.15 0.00 1015.7
20200228113022 -17 0.0 0.0 0.00 0.15 0.00 1015.6
20200228111510 -17 0.0 0.0 0.00 0.15 0.00 1015.5
20200228110103 -17 0.0 0.0 0.00 0.15 0.00 1015.6
20200228104727 -17 0.0 0.0 0.00 0.15 0.00 1015.6
20200228103114 -17 0.0 0.0 0.00 0.15 0.00 1015.7
20200228101606 -17 0.0 0.0 0.00 0.15 0.00 1015.8